Find Starlink 5655

NORAD ID: 55336 Int'l Des: 2023-013 Owner: SPXS Country: US Constellation: starlink operational
LEOCIRCULAR

Live-Position

3D-Globus wird geladen...

Über Starlink 5655

Beschreibung wird geladen...

Nächste Überflüge

Passes for default location (London). Set your location on the main map for personalized predictions.

Höhenverlauf

Loading altitude history...

Zweizeiliger Elementsatz

1 55336U 23013F 26124.27638516 .00002051 00000-0 84046-4 0 9998
2 55336 43.0021 334.7616 0001207 272.1867 87.8846 15.27570978180345
Epoch: 4. Mai 2026 • Age: 11 hours

Aktueller Status

Höhe 484.5 km
Geschwindigkeit 7.63 km/s
Subsatellitenpunkt 31.39°N, 117.42°W
Startdatum 26. Jan. 2023
Alter 3.2 years
Typ internet

Technische Details

Klassifizierung Payload
Masse 305.00 kg
Trockenmasse 290.00 kg
Gesamtmasse 305.00 kg
Länge 0.20 m
Durchmesser 2.80 m
Spannweite 9.00 m
Form Box + pan
Hersteller SPXS
Bus-Typ Starlink
Phasenstatus In Orbit
Besitzer/Staat SPXS/US

Most Searched